Temperature
18 18 18 18 18 18 18 18 18 18 18 18 18 18 18 18 18 18 18 18 18 18 18 17 17 17 17 17 17 17 16 16 16 16 16 16 16 16 16 16 16 16 16
18 18 18 18 18 18 18 18 18 18 18 18 18 18 18 18 17 18 18 18 18 18 18 17 17 17 17 17 17 17 16 16 16 16 16 16 16 16 16 16 16 16 16
18 18 18 18 18 18 18 18 18 18 18 18 18 18 18 18 17 17 17 17 18 17 17 17 17 17 17 17 17 17 16 16 16 16 16 16 16 16 16 16 16 16 16
18 18 18 18 18 18 18 18 18 18 18 18 18 18 18 18 17 17 17 17 17 17 17 17 17 17 17 17 17 17 16 16 16 16 16 16 16 16 16 16 16 16 16
18 18 18 18 18 18 18 18 18 18 18 18 18 18 18 18 18 17 17 17 17 17 17 17 17 17 17 17 17 17 16 16 16 16 16 16 16 16 16 16 16 16 16
18 18 18 18 18 18 18 18 18 18 18 18 18 18 18 18 18 18 18 17 17 17 17 17 17 17 17 17 17 17 16 16 16 16 16 16 16 16 16 16 15 15 15
18 18 18 18 18 18 18 18 18 18 18 18 18 18 18 18 18 18 18 18 17 17 17 17 17 17 17 17 17 17 16 16 16 16 16 16 16 16 16 16 15 15 15
18 18 18 18 18 18 18 18 18 18 18 18 18 18 18 18 18 18 18 18 18 18 17 17 17 17 17 17 17 17 17 16 16 16 16 16 16 16 16 16 16 15 15
18 18 18 18 18 18 18 18 18 18 18 18 18 18 18 18 18 18 18 18 18 18 18 17 17 17 17 17 16 16 16 16 16 16 16 16 16 16 16 16 16 15 15
18 18 18 18 18 18 18 18 18 18 18 18 18 18 18 18 18 18 18 18 18 18 18 18 17 17 17 17 17 17 16 16 16 16 16 16 16 16 16 16 15 15 15
18 18 18 18 18 18 18 18 17 18 17 18 18 18 18 18 18 18 18 18 18 18 18 18 18 18 17 17 17 17 17 17 16 16 16 16 16 16 16 16 15 15 15
18 18 18 18 18 18 18 17 17 17 17 17 18 18 18 18 18 18 18 18 18 18 18 18 18 18 18 17 17 17 17 17 17 16 16 16 16 16 16 16 15 15 15
18 18 18 18 18 18 18 17 17 17 17 17 18 18 18 18 18 18 18 18 18 18 18 18 18 18 18 18 17 17 17 17 17 17 16 16 16 16 16 16 15 15 15
18 18 18 18 18 17 17 17 17 17 17 17 17 18 18 18 18 18 18 18 18 18 18 18 18 18 18 18 17 17 17 17 17 17 16 16 16 16 16 16 16 15 15
18 18 18 17 17 17 17 17 17 17 17 17 17 17 17 17 17 18 18 18 18 18 18 18 18 18 18 18 18 17 17 17 17 16 16 16 16 16 16 16 16 16 15
17 17 17 17 17 17 17 17 17 17 17 17 17 17 17 17 17 17 17 17 17 17 17 18 18 18 18 18 17 17 17 17 17 16 16 16 16 16 16 16 16 16 15
18 17 17 17 17 17 17 17 17 17 17 17 17 17 17 17 17 17 17 17 17 17 17 17 17 17 17 17 17 17 17 16 16 16 16 16 16 16 16 16 16 16 16
17 17 17 17 17 17 17 17 17 17 17 17 17 17 17 17 17 17 17 17 17 17 17 17 17 17 17 17 17 17 16 16 16 16 16 16 16 16 16 16 16 16 16
17 17 17 17 17 17 17 17 17 17 17 17 17 17 17 16 17 17 17 16 16 16 16 16 16 16 16 16 16 16 16 16 16 16 16 16 16 16 16 16 16 16 15
17 17 17 17 17 17 17 17 17 16 16 16 16 16 16 16 16 16 16 16 16 16 16 16 16 16 16 16 16 16 16 16 16 16 16 16 16 16 16 15 15 15 15
17 17 16 16 16 16 16 16 16 16 16 16 16 16 16 16 16 16 16 16 16 16 15 15 15 15 15 15 15 15 15 15 15 15 15 15 15 15 15 15 15 15 15
17 16 16 16 16 16 16 16 16 16 16 16 16 16 16 16 16 16 16 16 15 15 15 15 15 15 15 15 15 15 15 15 15 15 15 15 15 14 14 15 15 15 14
16 16 16 16 16 16 16 16 16 16 16 16 16 16 15 15 15 15 15 15 15 15 15 15 14 14 14 14 14 14 14 14 14 14 14 14 14 14 14 14 14 14 14
16 16 16 16 16 16 16 16 16 16 15 15 15 15 15 15 15 15 15 15 14 14 14 14 14 14 14 14 13 13 13 13 13 13 13 13 14 13 13 13 13 13 13
16 15 15 15 15 15 15 15 15 15 15 15 15 15 15 15 14 14 14 14 14 13 13 13 13 13 13 13 13 13 12 12 12 13 12 12 12 12 13 13 13 12 12
15 15 15 15 15 15 15 15 15 15 14 14 14 14 14 14 14 14 14 13 13 13 13 13 12 12 12 12 12 12 12 12 11 11 11 11 11 11 11 12 12 12 11
Wind_Speed
5 6 6 8 9 9 7 4 3 3 3 3 3 4 4 8 13 14 13 14 13 11 10 9 9 9 8 8 8 7 7 7 6 6 6 6 6 6 6 6 5 5 5
6 5 4 4 4 7 7 5 5 3 2 2 2 3 3 5 10 14 14 13 13 12 10 10 9 9 8 8 8 7 7 7 7 6 6 6 6 6 5 5 5 5 5
9 6 4 4 4 7 7 4 4 4 3 3 3 3 3 4 7 11 14 13 12 12 11 11 10 9 9 9 8 8 8 7 7 7 7 7 6 6 6 6 6 6 6
10 7 5 4 6 7 6 3 2 3 2 2 2 2 3 3 5 8 11 13 13 12 13 13 12 11 10 10 10 9 9 9 8 8 8 8 7 7 7 7 7 7 7
10 6 4 4 7 4 4 5 4 3 3 3 3 3 3 3 4 6 7 10 12 13 14 14 14 13 12 11 11 11 10 10 10 9 9 9 9 9 9 8 8 8 8
10 7 4 6 6 3 3 2 4 2 2 2 3 3 3 4 4 3 5 7 11 13 15 15 14 14 15 14 13 12 12 11 11 11 11 10 10 10 10 10 10 9 9
11 7 4 5 4 4 4 5 4 4 2 2 1 1 2 4 5 4 4 4 6 9 12 16 15 14 14 17 16 15 14 13 13 12 12 11 11 11 11 11 11 11 11
11 10 5 5 5 3 4 4 4 2 3 3 2 2 1 1 3 6 5 5 5 7 8 13 14 15 14 14 17 18 16 15 14 13 13 12 12 12 12 12 12 12 12
11 9 8 6 6 5 5 5 5 4 3 3 3 2 2 1 2 3 6 6 5 4 5 7 11 14 14 15 16 19 19 17 16 14 14 13 13 12 12 12 12 12 12
10 10 9 7 6 5 6 7 7 5 4 3 3 2 2 2 1 1 3 3 5 6 5 5 7 11 13 12 15 18 21 20 18 16 15 14 14 13 13 12 12 12 12
9 10 9 7 7 5 6 6 6 6 4 4 3 3 3 3 4 2 3 3 3 4 6 5 5 8 13 13 13 17 21 21 20 18 16 15 14 14 13 13 13 12 12
8 9 10 8 8 6 6 6 6 7 5 5 4 3 3 3 3 3 3 3 4 4 5 4 5 6 10 13 15 17 22 22 21 19 18 16 16 15 15 14 14 13 13
9 10 10 8 8 7 7 7 7 7 7 5 5 4 3 4 3 3 3 3 3 2 3 3 4 6 9 10 12 16 20 22 21 20 19 17 17 16 16 15 15 14 14
8 10 9 9 9 8 9 7 7 7 6 7 8 6 4 4 3 3 3 3 2 3 3 4 3 5 7 8 10 14 14 20 20 20 19 18 17 17 17 16 16 16 15
7 9 9 10 9 9 8 8 6 7 7 7 7 7 5 4 4 3 3 3 3 3 4 4 2 3 4 6 9 10 10 16 19 19 19 18 18 17 17 17 17 17 17
7 8 9 9 9 9 9 8 7 8 8 7 6 6 6 5 4 4 3 3 2 3 4 3 3 2 2 4 9 9 8 12 17 18 19 19 19 18 18 18 18 18 18
7 7 8 8 9 9 8 8 8 8 9 8 8 8 7 6 4 3 3 3 3 3 5 4 2 2 1 1 4 6 8 9 12 18 20 21 21 20 20 20 19 19 18
7 7 7 7 8 8 8 9 9 9 9 9 9 8 7 7 6 5 3 4 3 3 3 5 3 2 2 2 3 4 5 7 8 14 21 22 22 22 22 21 21 20 19
7 7 7 8 8 7 7 8 8 8 8 8 8 8 7 7 7 6 5 4 3 4 3 3 3 3 2 3 3 4 5 4 8 10 15 19 21 22 22 22 21 20 19
6 6 6 6 6 6 6 6 7 7 7 6 6 7 7 7 7 6 5 4 3 3 2 2 3 3 2 3 2 3 4 3 5 8 7 10 15 19 21 21 20 19 19
5 4 5 5 5 5 5 6 6 7 6 6 5 4 4 4 4 3 3 2 2 2 2 2 3 2 2 2 2 2 3 3 3 3 3 4 4 7 10 15 17 18 18
3 4 4 4 3 3 3 4 4 4 4 4 3 3 3 4 5 4 3 2 1 2 2 2 3 2 2 2 2 3 3 3 3 2 3 5 3 3 3 6 10 15 16
3 3 3 3 2 2 3 3 4 3 2 2 2 2 2 2 3 3 3 3 1 1 1 2 2 3 3 3 3 3 3 4 4 4 4 5 4 4 3 5 5 6 11
3 3 3 3 3 3 3 3 4 3 3 3 2 2 2 3 2 1 2 3 2 2 1 1 1 1 2 3 3 4 5 5 5 4 3 4 3 3 4 4 5 5 7
4 4 4 5 5 4 5 4 4 4 4 5 5 6 6 6 6 5 4 4 3 2 2 2 2 1 2 3 3 3 3 4 4 3 3 2 3 4 4 3 3 4 6
7 7 7 6 6 7 8 7 6 4 5 5 6 7 9 8 8 7 5 4 3 1 1 1 1 1 2 3 3 2 2 3 4 3 3 3 3 4 3 3 2 4 5
Wind_Direction
152 150 156 167 178 165 168 174 143 134 138 133 113 100 90 104 123 127 139 150 152 155 157 157 158 159 159 158 159 159 157 156 155 155 156 158 157 157 155 155 157 156 151
145 141 146 172 172 150 148 147 147 145 139 109 104 111 108 112 124 133 146 157 162 166 168 170 172 172 174 175 176 176 175 176 173 173 174 173 175 176 177 179 180 180 180
151 154 159 179 164 135 128 142 155 154 166 159 153 138 124 122 124 139 153 161 170 178 181 183 184 186 186 186 187 188 190 190 189 191 191 193 194 196 198 199 198 199 201
160 171 167 178 153 150 153 153 181 165 152 154 161 166 127 134 148 158 162 168 173 179 187 193 193 194 196 198 198 199 201 202 201 202 203 205 207 209 211 213 213 214 215
171 187 173 151 157 165 162 179 159 164 164 178 182 168 166 178 176 185 171 176 175 174 179 191 197 199 201 203 205 205 206 207 207 209 212 214 216 218 219 222 223 223 225
178 192 172 151 170 173 162 136 131 143 150 193 216 174 188 184 184 181 189 185 178 183 180 181 189 202 209 208 208 209 209 210 211 215 218 220 223 224 225 227 229 230 230
181 192 180 156 185 176 163 159 153 162 198 202 187 190 218 198 187 182 205 190 189 193 180 176 189 193 201 212 213 212 213 214 215 218 222 224 226 228 229 230 232 233 236
182 188 187 175 182 174 166 161 152 170 207 192 178 159 226 239 231 212 195 196 200 196 187 190 193 185 194 195 210 214 215 215 217 219 222 224 227 230 231 231 233 235 237
188 193 182 188 177 183 175 179 176 191 207 208 205 179 182 212 228 232 215 203 190 197 204 201 195 192 199 192 196 209 213 215 217 219 222 223 226 229 231 232 233 234 237
193 196 187 193 184 191 172 186 187 193 200 217 220 215 189 167 190 234 255 218 201 209 210 213 210 197 204 197 189 197 206 212 215 218 221 223 225 227 230 232 234 236 237
196 201 195 191 192 201 191 192 173 188 197 219 224 210 214 207 214 206 239 238 231 222 210 210 210 205 202 202 193 195 201 208 211 214 218 222 224 226 228 231 234 236 237
197 203 201 193 195 206 201 192 182 191 205 221 239 237 209 208 223 221 226 229 234 236 221 211 205 207 206 203 206 206 202 206 209 213 217 222 225 227 230 233 235 237 239
196 201 205 194 198 202 200 196 194 205 204 212 227 244 240 229 227 238 228 243 248 245 223 222 211 206 214 206 200 200 201 204 208 213 218 222 226 229 231 232 234 237 240
201 196 197 195 198 199 206 200 201 207 204 209 223 229 248 248 241 246 235 235 258 261 248 248 221 206 214 191 189 194 199 203 208 214 219 223 227 230 232 233 234 237 240
208 195 195 197 200 201 205 202 208 212 205 207 221 222 230 245 243 251 249 230 226 254 261 259 247 207 191 179 174 191 199 203 210 215 220 224 228 231 233 235 237 239 241
208 195 199 200 201 202 204 206 207 212 211 211 218 223 218 233 236 230 236 243 229 234 259 259 254 253 207 194 180 193 208 209 212 216 221 225 228 231 233 235 238 240 242
201 198 198 200 200 204 206 206 209 206 212 214 220 221 217 222 233 234 230 236 240 236 251 267 273 288 248 213 169 210 226 213 215 221 224 226 228 230 232 235 238 240 243
199 198 198 200 205 207 206 205 211 213 215 217 219 220 219 222 226 235 239 246 247 245 246 264 279 294 275 225 194 224 243 242 235 232 226 227 228 230 232 234 237 239 241
195 194 197 201 208 210 209 210 212 219 219 216 216 218 220 223 229 232 230 238 246 256 241 242 256 260 262 256 238 244 253 266 266 262 234 228 229 231 234 236 238 240 241
190 189 196 198 204 209 208 211 213 216 219 218 219 221 222 224 225 228 232 235 240 253 262 255 258 266 266 264 249 254 267 268 269 273 265 235 232 235 237 240 239 239 241
183 182 188 193 199 206 215 216 215 216 220 221 216 215 210 190 185 196 215 212 238 246 255 259 261 275 279 293 292 293 288 296 296 288 297 279 244 233 237 238 237 241 241
163 167 174 177 185 207 201 193 198 212 213 207 199 198 185 160 144 141 130 119 156 232 257 267 269 273 289 307 309 299 294 304 300 305 312 299 299 277 257 232 232 232 235
144 146 144 135 131 102 98 131 151 163 159 166 176 182 190 144 121 136 144 145 81 8 220 237 273 300 313 323 322 313 311 304 288 297 304 288 291 293 304 305 295 253 242
125 123 119 111 96 70 91 126 128 133 109 98 86 91 103 75 61 98 136 120 95 55 55 166 192 272 306 331 318 301 292 290 283 289 297 288 304 304 307 299 281 272 261
112 101 94 95 88 61 59 86 112 114 107 89 73 62 71 71 49 62 90 98 86 55 72 111 148 216 298 326 335 334 323 315 306 310 350 320 315 309 298 291 282 282 275
99 92 81 75 74 67 59 72 95 103 103 94 83 72 64 68 58 65 88 94 88 53 20 18 44 327 307 333 5 15 352 332 319 323 1 344 329 332 312 307 324 326 308
Height
1563 1564 1566 1568 1569 1571 1572 1574 1575 1577 1578 1580 1581 1582 1583 1584 1583 1584 1585 1586 1586 1587 1588 1589 1590 1591 1592 1592 1593 1594 1595 1596 1597 1597 1598 1599 1600 1600 1601 1602 1602 1603 1603
1563 1564 1566 1568 1570 1572 1573 1574 1576 1577 1578 1580 1581 1582 1583 1584 1585 1584 1585 1586 1587 1588 1588 1589 1590 1591 1592 1592 1593 1594 1595 1596 1596 1597 1598 1599 1599 1600 1601 1601 1602 1603 1603
1562 1564 1566 1568 1570 1571 1573 1574 1576 1577 1579 1580 1581 1583 1583 1584 1585 1585 1585 1586 1587 1588 1589 1589 1590 1591 1591 1592 1593 1594 1594 1595 1596 1597 1597 1598 1599 1599 1600 1601 1601 1602 1602
1561 1563 1565 1567 1569 1571 1573 1574 1576 1578 1579 1580 1581 1582 1583 1584 1585 1585 1586 1586 1587 1588 1588 1589 1590 1590 1591 1591 1592 1593 1594 1594 1595 1596 1596 1597 1598 1598 1599 1600 1600 1601 1601
1560 1562 1565 1567 1568 1571 1572 1574 1575 1577 1578 1580 1581 1582 1582 1583 1584 1585 1586 1587 1587 1587 1588 1589 1589 1590 1590 1591 1591 1592 1592 1593 1594 1594 1595 1596 1596 1597 1598 1598 1599 1599 1600
1558 1560 1563 1565 1567 1569 1571 1573 1575 1576 1577 1579 1580 1581 1582 1583 1584 1585 1586 1586 1587 1587 1587 1588 1588 1589 1589 1589 1590 1590 1591 1591 1592 1593 1593 1594 1595 1595 1596 1596 1597 1597 1598
1556 1558 1562 1563 1566 1568 1569 1571 1573 1575 1576 1578 1579 1580 1581 1582 1583 1584 1584 1585 1586 1586 1587 1586 1587 1587 1588 1588 1589 1589 1589 1590 1590 1591 1591 1592 1592 1593 1594 1594 1595 1595 1596
1554 1557 1559 1561 1563 1566 1568 1569 1571 1573 1575 1577 1578 1579 1580 1582 1581 1582 1583 1584 1584 1585 1586 1585 1585 1585 1586 1586 1587 1587 1587 1588 1588 1589 1589 1590 1590 1591 1591 1592 1592 1593 1593
1551 1554 1556 1559 1561 1563 1565 1567 1569 1571 1573 1575 1576 1578 1578 1579 1580 1581 1581 1582 1583 1583 1584 1584 1584 1584 1584 1584 1584 1585 1586 1586 1586 1587 1587 1588 1588 1589 1589 1589 1590 1590 1590
1549 1551 1553 1556 1558 1561 1563 1565 1567 1568 1571 1572 1574 1576 1577 1578 1578 1579 1580 1580 1581 1581 1581 1582 1582 1582 1582 1582 1582 1582 1583 1584 1584 1585 1585 1585 1586 1586 1586 1587 1587 1587 1587
1545 1548 1550 1553 1555 1558 1560 1562 1564 1566 1568 1570 1572 1573 1574 1576 1576 1577 1577 1578 1578 1578 1579 1579 1579 1580 1580 1580 1580 1580 1580 1581 1582 1582 1583 1583 1583 1584 1584 1584 1584 1584 1584
1541 1544 1547 1549 1552 1554 1557 1559 1561 1563 1565 1566 1568 1570 1572 1573 1574 1574 1575 1575 1575 1575 1575 1576 1576 1577 1577 1577 1577 1577 1578 1578 1579 1579 1580 1580 1581 1581 1581 1581 1581 1581 1581
1536 1540 1543 1545 1548 1551 1553 1556 1558 1560 1561 1563 1564 1566 1568 1569 1571 1572 1572 1573 1573 1573 1573 1573 1573 1574 1575 1575 1575 1575 1575 1576 1576 1576 1577 1577 1577 1578 1578 1578 1578 1578 1578
1532 1535 1538 1541 1544 1547 1549 1552 1554 1556 1558 1559 1561 1563 1564 1566 1567 1568 1569 1570 1570 1570 1570 1570 1571 1571 1571 1571 1572 1572 1572 1573 1573 1573 1573 1574 1574 1574 1574 1574 1574 1575 1575
1529 1531 1534 1536 1539 1542 1545 1548 1550 1552 1554 1555 1557 1559 1560 1562 1564 1565 1566 1567 1568 1567 1567 1567 1568 1568 1569 1569 1569 1569 1569 1569 1569 1569 1570 1570 1570 1570 1570 1570 1570 1571 1571
1524 1526 1529 1532 1534 1537 1540 1542 1544 1547 1549 1551 1553 1555 1556 1558 1559 1561 1562 1563 1564 1564 1564 1564 1565 1565 1566 1566 1565 1566 1566 1566 1566 1566 1566 1566 1566 1566 1566 1566 1566 1566 1566
1519 1522 1524 1527 1529 1532 1535 1538 1540 1542 1545 1547 1549 1550 1552 1554 1555 1556 1558 1559 1560 1561 1561 1561 1562 1562 1562 1563 1562 1562 1563 1562 1562 1562 1562 1562 1562 1562 1562 1562 1562 1562 1561
1515 1518 1520 1523 1525 1528 1530 1533 1535 1537 1540 1542 1544 1546 1548 1549 1551 1552 1553 1554 1556 1557 1558 1557 1558 1558 1558 1559 1559 1558 1559 1558 1558 1558 1558 1558 1557 1557 1557 1557 1556 1556 1556
1512 1514 1516 1519 1522 1524 1526 1529 1531 1533 1536 1538 1540 1542 1543 1545 1546 1548 1549 1550 1551 1553 1553 1554 1554 1554 1555 1555 1555 1554 1555 1554 1554 1554 1554 1553 1553 1553 1552 1552 1552 1551 1551
1509 1511 1513 1515 1518 1520 1522 1525 1527 1529 1531 1534 1536 1537 1539 1540 1541 1543 1544 1546 1547 1548 1549 1550 1550 1550 1551 1551 1551 1550 1550 1550 1550 1550 1549 1548 1548 1548 1547 1547 1546 1546 1545
1507 1509 1511 1512 1514 1516 1518 1521 1523 1525 1527 1530 1531 1533 1535 1536 1537 1539 1541 1542 1543 1544 1545 1546 1546 1547 1547 1547 1547 1546 1546 1546 1545 1545 1545 1544 1543 1543 1542 1541 1541 1540 1539
1505 1506 1508 1510 1511 1513 1515 1517 1519 1521 1523 1525 1527 1529 1531 1532 1533 1535 1537 1538 1540 1541 1541 1542 1542 1542 1542 1543 1543 1542 1542 1541 1540 1541 1540 1539 1539 1538 1537 1536 1536 1535 1534
1503 1505 1506 1508 1509 1511 1513 1514 1516 1518 1520 1522 1523 1525 1527 1528 1530 1531 1533 1535 1536 1537 1537 1538 1538 1538 1538 1539 1539 1538 1537 1537 1536 1536 1535 1533 1533 1533 1532 1531 1530 1529 1529
1502 1504 1505 1507 1508 1509 1511 1512 1514 1516 1517 1519 1521 1522 1524 1525 1527 1528 1530 1531 1532 1533 1534 1534 1535 1535 1535 1535 1535 1534 1533 1533 1532 1532 1531 1529 1528 1528 1527 1526 1525 1524 1523
1502 1503 1505 1506 1508 1509 1510 1511 1513 1514 1516 1517 1519 1520 1521 1523 1524 1526 1527 1528 1529 1530 1531 1531 1531 1531 1531 1531 1531 1531 1530 1529 1528 1527 1527 1526 1524 1522 1522 1521 1521 1519 1518
1502 1503 1505 1507 1508 1509 1509 1511 1512 1513 1514 1516 1517 1519 1520 1522 1523 1524 1526 1526 1527 1528 1529 1529 1529 1529 1529 1529 1528 1527 1526 1526 1524 1524 1523 1522 1520 1519 1517 1517 1516 1514 1513